Location: Ahausen
(50.4985°N, 8.2722°E)
Time: 03:08:21
(UTC+00:00)

ITUPSAT 1 - Pass Details

Date: 05 July 2022
Orbit: 701 x 711 km, 98.6° (Epoch: 11 August)

Event Time Altitude Azimuth Distance (km) Brightness Sun altitude
Rises 20:29:58 0° 11° (NNE) 3,115 ? -6.5°
Reaches altitude 10° 20:32:16 10° 8° (N) 2,193 ? -6.8°
Maximum altitude 20:36:58 58° 291° (WNW) 833 ? -7.3°
Drops below altitude 10° 20:41:39 10° 213° (SSW) 2,182 ? -7.7°
Sets 20:43:56 0° 209° (SSW) 3,098 ? -8.0°
